IQ1ZW Weather Reports


time (UTC)temp
F
wind
direction
speed
knots
gust
knots
rain 1hr
in
rain 24hr
in
rain mn
in
humidity
%
barometer
mb
20260902152716 79 217 0.9 3.5 0.00 3.02 0.00 83 1012.8
20260902152219 79 194 1.7 4.3 0.00 3.02 0.00 83 1012.8
20260902151713 79 271 1.7 4.3 0.00 3.02 0.00 84 1012.9
20260902151216 78 216 2.6 207.7 0.00 3.02 0.00 84 1012.9
20260902150719 79 223 2.6 3.5 0.00 3.02 0.00 84 1013.0
20260902150216 79 226 0.9 5.2 0.00 3.02 0.00 85 1012.9
20260902145713 79 220 1.7 6.1 0.00 3.02 0.00 84 1013.0
20260902145214 79 212 0.9 4.3 0.00 3.02 0.00 84 1013.0
20260902144716 79 212 2.6 4.3 0.00 3.02 0.00 84 1012.9
20260902144219 79 285 0.9 4.3 0.00 3.02 0.00 83 1012.9
20260902143713 80 268 0.9 3.5 0.00 3.02 0.00 84 1013.0
20260902143214 80 234 3.5 4.3 0.00 3.02 0.00 82 1013.0
20260902142722 80 223 0.0 4.3 0.00 3.02 0.00 84 1013.0
20260902142219 80 188 0.0 2.6 0.00 3.02 0.00 84 1013.0
20260902141713 79 1 0.9 3.5 0.00 3.02 0.00 85 1013.0
20260902141216 79 1 3.5 4.3 0.00 3.02 0.00 85 1013.1
20260902140714 78 212 1.7 9.6 0.00 3.02 0.00 84 1013.2
20260902140213 78 172 2.6 7.8 0.00 3.02 0.00 85 1013.2
20260902135716 78 182 1.7 7.0 0.00 3.02 0.00 84 1013.2
20260902135219 78 212 6.1 8.7 0.00 3.02 0.00 84 1013.3
20260902134713 79 195 4.3 7.0 0.00 3.02 0.00 85 1013.3
20260902134214 78 175 3.5 6.1 0.00 3.02 0.00 84 1013.4
20260902133716 79 220 7.0 7.0 0.00 3.02 0.00 84 1013.4
20260902133216 79 230 5.2 6.1 0.00 3.02 0.00 84 1013.5
20260902132713 79 1 3.5 7.0 0.00 3.02 0.00 84 1013.3
20260902132222 79 233 0.9 7.0 0.00 3.02 0.00 85 1013.4
20260902131716 79 182 0.9 5.2 0.00 3.02 0.00 84 1013.4
20260902131216 79 237 2.6 6.1 0.00 3.02 0.00 83 1013.5
20260902130719 79 194 1.7 7.8 0.00 3.02 0.00 84 1013.6
20260902130213 79 182 5.2 7.0 0.00 3.02 0.00 84 1013.6
20260902125717 79 172 0.9 8.7 0.00 3.02 0.00 84 1013.6
20260902125213 79 163 2.6 8.7 0.00 3.02 0.00 84 1013.6
20260902124713 79 196 2.6 7.8 0.00 3.02 0.00 84 1013.6
20260902124219 79 178 3.5 6.1 0.00 3.02 0.00 83 1013.6
20260902123717 79 184 3.5 7.0 0.00 3.02 0.00 84 1013.6
20260902123214 79 1 7.0 7.8 0.00 3.02 0.00 84 1013.7
20260902122716 79 203 0.9 4.3 0.00 3.02 0.00 84 1013.8
20260902122213 79 178 0.0 7.0 0.00 3.02 0.00 84 1013.8
20260902121713 79 240 0.9 6.1 0.00 3.02 0.00 84 1013.8
20260902121223 79 230 2.6 3.5 0.00 3.02 0.00 84 1013.8
20260902120714 79 244 0.9 6.1 0.00 3.02 0.00 84 1013.9
20260902120213 79 220 0.9 7.0 0.00 3.02 0.00 85 1014.0
20260902115716 79 246 2.6 4.3 0.00 3.02 0.00 85 1013.9
20260902115214 78 172 1.7 7.8 0.00 3.02 0.00 85 1014.1
20260902114713 78 209 5.2 7.0 0.00 3.02 0.00 85 1014.1
20260902114213 78 199 1.7 7.8 0.00 3.02 0.00 84 1014.1
20260902113714 79 177 5.2 6.1 0.00 3.02 0.00 84 1014.1
20260902113223 79 191 1.7 7.0 0.00 3.02 0.00 84 1014.0
20260902112714 79 185 2.6 8.7 0.00 3.02 0.00 84 1014.0
20260902112213 79 1 3.5 7.8 0.00 3.02 0.00 83 1014.0
20260902111714 79 210 3.5 6.1 0.00 3.02 0.00 85 1014.0
20260902111217 79 188 3.5 6.1 0.00 3.02 0.00 87 1014.1
20260902110723 78 206 1.7 5.2 0.00 3.02 0.00 86 1014.2
20260902110214 77 171 3.5 8.7 0.00 3.02 0.00 85 1014.2
20260902105717 78 165 2.6 8.7 0.00 3.02 0.00 84 1014.1
20260902105221 79 223 3.5 4.3 0.00 3.02 0.00 83 1014.2
20260902104715 79 213 2.6 7.0 0.00 3.02 0.00 84 1014.3
20260902104217 79 203 3.5 9.6 0.00 3.02 0.00 82 1014.3
20260902103714 80 206 5.2 6.1 0.00 3.02 0.00 83 1014.2
20260902103223 79 184 0.0 7.8 0.00 3.02 0.00 84 1014.2
20260902102714 80 230 4.3 5.2 0.00 3.02 0.00 84 1014.3
20260902102217 79 181 1.7 7.0 0.00 3.02 0.00 84 1014.4
20260902101717 79 170 1.7 5.2 0.00 3.02 0.00 84 1014.5
20260902101214 79 185 4.3 7.0 3.02 3.02 0.00 83 1014.4
20260902100714 80 170 4.3 6.1 3.02 3.02 0.00 83 1014.4
20260902100214 80 1 4.3 6.1 3.02 3.02 0.00 83 1014.4
20260902095717 79 181 2.6 7.0 3.02 3.02 0.00 83 1014.4
20260902095217 79 182 4.3 7.0 3.02 3.02 0.00 83 1014.4
20260902094714 79 1 3.5 7.8 3.02 3.02 0.00 84 1014.3
20260902094214 79 189 3.5 6.1 3.02 3.02 0.00 83 1014.3
20260902093714 79 157 1.7 4.3 3.02 3.02 0.00 82 1014.3
20260902093214 79 187 3.5 82.6 3.02 3.02 0.00 82 1014.3
20260902092720 79 1 3.5 7.0 3.02 3.02 0.00 82 1014.3
20260902092215 79 208 4.3 7.0 3.02 3.02 0.00 84 1014.2
20260902091717 79 1 2.6 209.4 3.02 3.02 0.00 83 1014.2
20260902091218 79 181 4.3 6.1 0.00 0.00 0.00 83 1014.3
20260902090714 79 1 6.1 6.1 0.00 0.00 0.00 83 1014.3
20260902090215 78 195 1.7 5.2 0.00 0.00 0.00 83 1014.3
20260902085714 78 203 5.2 6.1 0.00 0.00 0.00 82 1014.2
20260902085217 79 195 0.9 7.8 0.00 0.00 0.00 81 1014.2
20260902084714 80 209 2.6 3.5 0.00 0.00 0.00 80 1014.2
20260902084214 80 212 1.7 3.5 0.00 0.00 0.00 80 1014.2
20260902083720 79 175 0.9 3.5 0.00 0.00 0.00 80 1014.2
20260902083217 79 123 0.9 1.7 0.00 0.00 0.00 79 1014.2
20260902082717 79 123 0.0 1.7 0.00 0.00 0.00 79 1014.1
20260902082220 79 123 0.9 1.7 0.00 0.00 0.00 79 1014.0
20260902081714 78 123 0.0 1.7 0.00 0.00 0.00 79 1014.0
20260902081214 78 123 0.0 1.7 0.00 0.00 0.00 80 1014.0
20260902080721 79 122 0.9 0.9 0.00 0.00 0.00 80 1014.0
20260902080214 79 122 0.9 1.7 0.00 0.00 0.00 79 1014.0
20260902075714 79 122 0.9 1.7 0.00 0.00 0.00 79 1013.9
20260902075214 80 122 0.9 1.7 0.00 0.00 0.00 78 1013.9
20260902074715 80 123 0.0 0.9 0.00 0.00 0.00 79 1013.9
20260902074217 79 123 0.9 0.9 0.00 0.00 0.00 79 1013.9
20260902073714 79 123 0.0 0.9 0.00 0.00 0.00 80 1013.9
20260902073217 78 123 0.0 0.0 0.00 0.00 0.00 80 1013.8
20260902072717 78 123 0.0 1.7 0.00 0.00 0.00 81 1013.7
20260902072214 78 123 0.0 1.7 0.00 0.00 0.00 81 1013.7
20260902071714 78 123 0.9 0.9 0.00 0.00 0.00 82 1013.7
20260902071214 78 123 0.0 0.0 0.00 0.00 0.00 82 1013.7
20260902070717 78 123 0.0 0.0 0.00 0.00 0.00 82 1013.6
20260902070217 78 123 0.0 0.0 0.00 0.00 0.00 82 1013.7
20260902065717 78 123 0.0 0.9 0.00 0.00 0.00 82 1013.6
20260902065214 77 123 0.0 0.9 0.00 0.00 0.00 83 1013.6
20260902064714 77 123 0.0 0.9 0.00 0.00 0.00 84 1013.6
20260902064223 77 123 0.0 0.9 0.00 0.00 0.00 84 1013.6
20260902063714 77 123 0.0 1.7 0.00 0.00 0.00 84 1013.7
20260902063214 77 123 0.0 0.0 0.00 0.00 0.00 85 1013.7
20260902062717 76 123 0.0 0.0 0.00 0.00 0.00 85 1013.7
20260902062214 76 123 0.0 0.9 0.00 0.00 0.00 85 1013.7
20260902061714 76 123 0.0 0.0 0.00 0.00 0.00 86 1013.7
20260902061220 76 123 0.0 0.9 0.00 0.00 0.00 87 1013.7
20260902060714 75 123 0.0 0.9 0.00 0.00 0.00 87 1013.7
20260902060214 75 123 0.0 0.9 0.00 0.00 0.00 87 1013.7
20260902055714 75 123 0.0 0.0 0.00 0.00 0.00 87 1013.6
20260902055217 75 123 0.0 0.9 0.00 0.00 0.00 87 1013.7
20260902054714 74 123 0.0 0.9 0.00 0.00 0.00 87 1013.6
20260902054214 74 123 0.0 0.0 0.00 0.00 0.00 87 1013.7
20260902053717 74 123 0.0 0.9 0.00 0.00 0.00 87 1013.5
20260902053214 74 123 0.0 0.9 0.00 0.00 0.00 87 1013.5
20260902052720 74 123 0.0 0.9 0.00 0.00 0.00 87 1013.4
20260902052214 74 123 0.0 0.9 0.00 0.00 0.00 87 1013.4
20260902051717 74 123 0.0 0.0 0.00 0.00 0.00 87 1013.4
20260902051217 74 123 0.0 0.0 0.00 0.00 0.00 86 1013.3
20260902050714 74 123 0.0 1.7 0.00 0.00 0.00 86 1013.3
20260902050217 74 123 0.0 0.0 0.00 0.00 0.00 85 1013.2
20260902045720 74 123 0.0 0.9 0.00 0.00 0.00 85 1013.2
20260902045217 74 123 0.0 0.0 0.00 0.00 0.00 85 1013.1
20260902044714 74 123 0.0 0.9 0.00 0.00 0.00 85 1013.2
20260902044224 74 123 0.0 0.0 0.00 0.00 0.00 85 1013.3
20260902043714 74 123 0.0 0.9 0.00 0.00 0.00 85 1013.2
20260902043214 74 123 0.0 0.0 0.00 0.00 0.00 85 1013.2
20260902042723 74 123 0.0 0.0 0.00 0.00 0.00 86 1013.2
20260902042217 74 123 0.0 0.0 0.00 0.00 0.00 86 1013.1
20260902041714 74 123 0.0 0.0 0.00 0.00 0.00 86 1013.2
20260902041218 74 123 0.0 0.0 0.00 0.00 0.00 86 1013.1
20260902040714 74 123 0.0 0.9 0.00 0.00 0.00 86 1013.1
20260902040214 73 123 0.0 0.0 0.00 0.00 0.00 86 1013.1
20260902035720 73 123 0.0 0.0 0.00 0.00 0.00 86 1013.0
20260902035214 73 123 0.0 0.0 0.00 0.00 0.00 86 1013.1
20260902034714 73 125 0.0 1.7 0.00 0.00 0.00 86 1013.1
20260902034214 73 111 0.9 1.7 0.00 0.00 0.00 86 1013.1
20260902033714 74 111 0.0 1.7 0.00 0.00 0.00 86 1013.2
20260902033214 74 111 0.0 0.9 0.00 0.00 0.00 86 1013.3
20260902032720 74 111 0.0 1.7 0.00 0.00 0.00 86 1013.2
20260902032220 74 111 0.0 0.9 0.00 0.00 0.00 86 1013.3
20260902031715 74 111 0.0 0.0 0.00 0.00 0.00 86 1013.4
20260902031221 74 111 0.0 0.0 0.00 0.00 0.00 86 1013.3
20260902030715 74 111 0.0 0.0 0.00 0.00 0.00 86 1013.3
20260902030218 74 111 0.0 0.9 0.00 0.00 0.00 86 1013.3
20260902025718 74 111 0.0 0.9 0.00 0.00 0.00 86 1013.3
20260902025218 74 111 0.0 1.7 0.00 0.00 0.00 86 1013.3
20260902024718 74 111 0.0 1.7 0.00 0.00 0.00 86 1013.3
20260902024218 74 111 0.9 1.7 0.00 0.00 0.00 87 1013.3
20260902023715 74 111 0.0 1.7 0.00 0.00 0.00 87 1013.4
20260902023221 74 111 0.0 0.0 0.00 0.00 0.00 87 1013.3
20260902022721 74 111 0.0 106.0 0.00 0.00 0.00 87 1013.3
20260902022215 74 111 0.0 0.9 0.00 0.00 0.00 87 1013.2
20260902021715 74 111 0.0 0.9 0.00 0.00 0.00 87 1013.2
20260902021218 74 111 0.0 1.7 0.00 0.00 0.00 87 1013.2
20260902020715 74 111 0.0 0.9 0.00 0.00 0.00 87 1013.2
20260902020214 74 111 0.0 0.9 0.00 0.00 0.00 87 1013.2
20260902015714 74 111 0.9 1.7 0.00 0.00 0.00 87 1013.3
20260902015213 74 111 0.0 0.9 0.00 0.00 0.00 87 1013.2
20260902014711 74 111 0.0 1.7 0.00 0.00 0.00 87 1013.3
20260902014214 74 111 0.0 0.0 0.00 0.00 0.00 87 1013.4
20260902013714 74 111 0.0 0.0 0.00 0.00 0.00 87 1013.4
20260902013212 74 111 0.0 0.9 0.00 0.00 0.00 87 1013.3
20260902012711 74 111 0.0 0.0 0.00 0.00 0.00 87 1013.3
20260902012218 74 111 0.0 1.7 0.00 0.00 0.00 87 1013.2
20260902011711 74 111 0.0 1.7 0.00 0.00 0.00 87 1013.3
20260902011214 75 112 0.9 2.6 0.00 0.00 0.00 87 1013.2
20260902010714 75 112 0.0 0.9 0.00 0.00 0.00 87 1013.2
20260902010217 75 111 0.0 0.0 0.00 0.00 0.00 87 1013.2
20260902005714 75 111 0.0 0.0 0.00 0.00 0.00 87 1013.2
20260902005217 75 111 0.0 0.0 0.00 0.00 0.00 88 1013.2
20260902004713 74 111 0.0 0.0 0.00 0.00 0.00 88 1013.1
20260902004211 74 111 0.0 0.9 0.00 0.00 0.00 88 1013.1
20260902003717 74 111 0.0 0.9 0.00 0.00 0.00 88 1013.2
20260902003211 74 123 0.0 0.0 0.00 0.00 0.00 89 1013.4
20260902002717 74 123 0.0 0.0 0.00 0.00 0.00 89 1013.3
20260902002211 74 123 0.0 0.9 0.00 0.00 0.00 89 1013.3
20260902001717 74 123 0.0 0.9 0.00 0.00 0.00 89 1013.3
20260902001214 74 123 0.9 0.9 0.00 0.00 0.00 89 1013.4
20260902000714 74 164 0.0 0.9 0.00 0.00 0.00 89 1013.4
20260902000211 74 165 0.0 0.0 0.00 0.00 0.00 89 1013.4
20260901235714 74 165 0.0 1.7 0.00 0.00 0.00 89 1013.4
20260901235220 74 165 0.9 1.7 0.00 0.00 0.00 88 1013.5
20260901234714 75 172 0.9 1.7 0.00 0.00 0.00 88 1013.5
20260901234214 75 185 0.0 0.9 0.00 0.00 0.00 88 1013.6
20260901233717 75 185 0.0 1.7 0.00 0.00 0.00 88 1013.6
20260901233217 75 185 0.0 1.7 0.00 0.00 0.00 88 1013.6
20260901232717 75 185 0.9 0.9 0.00 0.00 0.00 87 1013.5
20260901232214 75 185 0.0 0.9 0.00 0.00 0.00 87 1013.6
20260901231711 76 185 0.0 1.7 0.00 0.00 0.00 87 1013.5
20260901231220 76 185 0.0 0.0 0.00 0.00 0.00 87 1013.5
20260901230711 76 185 0.0 0.0 0.00 0.00 0.00 87 1013.5
20260901230211 76 185 0.0 0.0 0.00 0.00 0.00 87 1013.5
20260901225714 76 185 0.0 0.0 0.00 0.00 0.00 87 1013.6
20260901225212 76 185 0.0 206.8 0.00 0.00 0.00 87 1013.6
20260901224714 76 185 0.0 0.9 0.00 0.00 0.00 87 1013.7
20260901224211 76 185 0.0 0.9 0.00 0.00 0.00 87 1013.7
20260901223714 76 185 0.0 0.0 0.00 0.00 0.00 87 1013.7
20260901223217 76 185 0.0 0.0 0.00 0.00 0.00 87 1013.7
20260901222717 76 185 0.0 0.0 0.00 0.00 0.00 87 1013.7
20260901222218 76 185 0.0 0.0 0.00 0.48 0.00 87 1013.7
20260901221714 76 185 0.0 0.0 0.00 1.00 0.00 87 1013.6
20260901221211 76 185 0.0 0.9 0.00 1.00 0.00 87 1013.6
20260901220711 76 185 0.0 0.9 0.00 1.00 0.00 87 1013.6
20260901220211 76 185 0.0 0.9 0.00 1.00 0.00 87 1013.5
20260901215711 76 187 0.0 1.7 0.00 1.00 0.00 87 1013.5
20260901215211 76 187 0.0 0.9 0.00 1.00 0.00 86 1013.5
20260901214714 76 187 0.0 0.0 0.00 1.00 0.00 86 1013.4
20260901214211 76 187 0.0 0.0 0.00 1.00 0.00 87 1013.4
20260901213711 76 187 0.0 0.0 0.00 1.00 0.00 87 1013.4
20260901213211 76 187 0.0 0.9 0.00 1.00 0.00 87 1013.3
20260901212717 76 187 0.0 0.9 0.00 1.00 0.00 86 1013.4
20260901212211 76 187 0.0 2.6 0.00 1.00 0.00 86 1013.3
20260901211717 76 188 0.0 0.0 0.00 1.00 0.00 86 1013.4
20260901211211 76 188 0.0 0.9 0.00 1.00 0.00 87 1013.4
20260901210714 76 188 0.0 0.0 0.00 1.00 0.00 87 1013.4
20260901210211 76 188 0.0 1.7 0.00 1.00 0.00 87 1013.5
20260901205711 76 188 0.0 0.9 0.00 1.00 0.00 87 1013.4
20260901205211 76 188 0.0 2.6 0.00 1.00 0.00 88 1013.4
20260901204717 76 189 0.0 0.9 0.00 1.00 0.00 88 1013.5
20260901204211 76 189 0.0 0.9 0.00 1.00 0.00 88 1013.5
20260901203714 76 189 0.0 0.9 0.00 1.00 0.00 88 1013.6
20260901203217 76 189 0.0 2.6 0.00 1.00 0.00 88 1013.7
20260901202711 76 189 0.9 2.6 0.00 1.00 0.00 88 1013.6
20260901202211 77 189 0.0 0.0 0.00 4.03 0.00 88 1013.6
20260901201717 77 189 0.0 1.7 0.00 4.03 0.00 88 1013.6
20260901201217 77 189 0.9 0.9 0.00 4.03 0.00 88 1013.6
20260901200715 77 189 0.0 1.7 0.00 4.03 0.00 88 1013.5
20260901200211 77 189 0.0 0.0 0.00 4.03 0.00 88 1013.5
20260901195711 77 189 0.0 0.9 0.00 4.03 0.00 88 1013.4
20260901195214 77 189 0.0 0.9 0.00 4.03 0.00 88 1013.4
20260901194711 77 189 0.0 0.0 0.00 4.03 0.00 89 1013.3
20260901194214 77 189 0.0 0.0 0.00 4.03 0.00 89 1013.3
20260901193715 77 189 0.0 0.9 0.00 4.03 0.00 89 1013.2
20260901193212 77 189 0.0 0.9 0.00 4.03 0.00 88 1013.1
20260901192712 77 189 0.0 1.7 0.00 4.03 0.00 88 1013.1
20260901192212 77 1 0.0 1.7 0.00 4.03 0.00 88 1013.1
20260901191712 77 191 0.0 0.0 0.00 4.03 0.00 88 1013.0
20260901191211 77 191 0.0 0.0 0.00 4.03 0.00 87 1012.9
20260901190717 78 191 0.0 0.0 0.00 4.03 0.00 88 1012.9
20260901190214 77 191 0.0 0.0 0.00 4.03 0.00 88 1012.8
20260901185721 77 191 0.0 0.0 0.00 4.03 0.00 88 1012.7
20260901185215 77 191 0.0 0.0 0.00 4.03 0.00 88 1012.7
20260901184712 77 191 0.0 0.9 0.00 4.03 0.00 88 1012.6
20260901184212 77 191 0.0 0.0 0.00 4.03 0.00 88 1012.4
20260901183712 77 191 0.0 0.9 0.00 4.03 0.00 88 1012.5
20260901183212 77 191 0.0 2.6 0.00 4.03 0.00 88 1012.4
20260901182721 77 1 0.9 5.2 0.00 4.03 0.00 87 1012.4
20260901182212 77 198 2.6 2.6 0.00 4.03 0.00 88 1012.4
20260901181712 77 198 0.9 3.5 0.00 4.03 0.00 88 1012.4
20260901181215 77 1 3.5 3.5 0.00 4.03 0.00 87 1012.3
20260901180715 78 185 1.7 4.3 0.00 4.03 0.00 87 1012.3
20260901180218 78 182 0.9 4.3 0.00 4.03 0.00 87 1012.3
20260901175712 78 182 2.6 4.3 0.00 4.03 0.00 87 1012.3
20260901175212 78 168 0.0 3.5 0.00 4.03 0.00 87 1012.2
20260901174712 78 1 3.5 5.2 0.00 4.03 0.00 87 1012.2
20260901174215 78 188 0.9 4.3 0.00 4.03 0.00 87 1012.2
20260901173712 78 188 5.2 5.2 0.00 4.03 0.00 87 1012.2
20260901173212 78 177 1.7 7.0 0.00 4.03 0.00 87 1012.2
20260901172721 78 168 6.1 7.8 0.00 4.03 0.00 87 1012.1
20260901172218 78 206 0.9 6.1 0.00 4.03 0.00 87 1012.2
20260901171713 78 182 1.7 7.0 0.00 4.03 0.00 87 1012.3
20260901171215 78 213 1.7 5.2 0.00 4.03 0.00 87 1012.2
20260901170712 78 217 5.2 6.1 0.00 4.03 0.00 86 1012.2
20260901170217 78 206 6.1 7.8 0.00 4.03 0.00 85 1012.2
20260901165718 79 230 1.7 8.7 0.00 4.03 0.00 83 1012.2
20260901165215 79 185 3.5 7.0 0.00 4.03 0.00 83 1012.2
20260901164712 79 182 2.6 8.7 0.00 4.03 0.00 82 1012.1
20260901164215 80 1 0.9 4.3 0.00 4.03 0.00 81 1012.1
20260901163712 80 192 4.3 6.1 0.00 4.03 0.00 80 1012.1
20260901163215 80 168 0.0 4.3 0.00 4.03 0.00 81 1012.1
20260901162713 80 156 0.9 7.0 0.00 4.03 0.00 80 1012.0
20260901162212 80 178 6.1 6.1 0.00 4.03 0.00 80 1012.0
20260901161712 80 165 2.6 4.3 0.00 4.03 0.00 83 1012.0
20260901161221 79 147 0.0 6.1 0.00 4.03 0.00 84 1012.1
20260901160720 79 1 5.2 9.6 0.00 4.03 0.00 83 1012.1
20260901160218 79 161 7.0 10.4 0.00 4.03 0.00 83 1012.0
20260901155712 79 196 2.6 10.4 0.00 4.03 0.00 83 1012.1
20260901155212 79 1 6.1 8.7 0.00 4.03 0.00 82 1012.1
20260901154715 79 1 4.3 10.4 0.00 4.03 0.00 82 1012.1
20260901154212 79 213 5.2 10.4 0.00 4.03 0.00 81 1012.1
20260901153715 79 1 5.2 8.7 0.00 4.03 0.00 80 1012.2
20260901153221 80 198 3.5 7.0 0.00 4.03 0.00 80 1012.3